TimeMDT,TemperatureF,Dew PointF,Humidity,Sea Level PressureIn,VisibilityMPH,Wind Direction,Wind SpeedMPH,Gust SpeedMPH,PrecipitationIn,Events,Conditions,WindDirDegrees,DateUTC
12:53 AM,66.9,45.0,45,29.95,10.0,West,8.1,-,N/A,,Clear,260,2013-08-08 06:53:00
1:53 AM,63.0,45.0,52,29.97,10.0,West,3.5,-,N/A,,Clear,260,2013-08-08 07:53:00
2:53 AM,61.0,45.0,56,29.97,10.0,WSW,6.9,-,N/A,,Clear,250,2013-08-08 08:53:00
3:53 AM,61.0,45.0,56,29.99,10.0,West,8.1,-,N/A,,Clear,260,2013-08-08 09:53:00
4:53 AM,57.9,45.0,62,30.00,10.0,West,5.8,-,N/A,,Clear,270,2013-08-08 10:53:00
5:53 AM,59.0,46.0,62,30.01,10.0,West,8.1,-,N/A,,Clear,260,2013-08-08 11:53:00
6:53 AM,59.0,46.9,64,30.04,10.0,WSW,6.9,-,N/A,,Clear,250,2013-08-08 12:53:00
7:53 AM,63.0,48.0,58,30.05,10.0,West,8.1,-,N/A,,Clear,280,2013-08-08 13:53:00
8:53 AM,64.9,48.9,56,30.06,10.0,WNW,5.8,-,N/A,,Clear,290,2013-08-08 14:53:00
9:53 AM,68.0,50.0,52,30.05,10.0,West,3.5,-,N/A,,Clear,270,2013-08-08 15:53:00
10:53 AM,72.0,50.0,46,30.03,10.0,Variable,3.5,-,N/A,,Clear,0,2013-08-08 16:53:00
11:53 AM,75.9,50.0,40,30.02,10.0,Variable,5.8,-,N/A,,Clear,0,2013-08-08 17:53:00
12:53 PM,78.1,50.0,37,30.00,10.0,North,6.9,-,N/A,,Clear,350,2013-08-08 18:53:00
1:53 PM,82.0,46.9,29,29.99,10.0,Variable,6.9,-,N/A,,Clear,0,2013-08-08 19:53:00
2:53 PM,84.0,46.9,27,29.96,10.0,NNE,8.1,-,N/A,,Clear,30,2013-08-08 20:53:00
3:53 PM,84.9,46.0,26,29.95,10.0,NE,5.8,-,N/A,,Clear,40,2013-08-08 21:53:00
4:53 PM,84.0,45.0,25,29.96,10.0,Variable,4.6,-,N/A,,Clear,0,2013-08-08 22:53:00
5:53 PM,82.9,50.0,32,29.96,10.0,North,12.7,-,N/A,,Clear,360,2013-08-08 23:53:00
6:53 PM,80.1,51.1,36,29.97,10.0,North,11.5,-,N/A,,Clear,360,2013-08-09 00:53:00
7:53 PM,77.0,48.9,37,29.99,10.0,North,5.8,-,N/A,,Clear,360,2013-08-09 01:53:00
8:53 PM,71.1,50.0,47,30.02,10.0,Calm,Calm,-,N/A,,Clear,0,2013-08-09 02:53:00
9:53 PM,70.0,50.0,49,30.05,10.0,West,4.6,-,N/A,,Clear,270,2013-08-09 03:53:00
10:53 PM,68.0,48.9,50,30.06,10.0,NNW,9.2,-,N/A,,Clear,330,2013-08-09 04:53:00
11:53 PM,66.0,48.0,52,30.07,10.0,West,8.1,-,N/A,,Clear,280,2013-08-09 05:53:00